Location: Unspecified
(47.0333°N, 0.0000°E)
Time: 05:39:41
(UTC+00:00)

OTV 5 (USA 277) - Pass Details

Date: 18 June 2019
Orbit: 305 x 329 km, 54.5° (Epoch: 11 August)

Event Time Altitude Azimuth Distance (km) Brightness Sun altitude
Exits shadow 00:19:17 19° 288° (WNW) 859 ? -19.5°
Maximum altitude 00:20:41 31° 338° (NNW) 611 ? -19.4°
Drops below altitude 10° 00:23:15 10° 44° (NE) 1,262 ? -19.4°
Enters shadow 01:24:25 -58° 259° (WSW) 11,191 ? -17.1°
